Portada
METAR-TAF:

METAR-TAF

Aeroports :

Norwood Memorial Airport

Norwood, Massachusetts, Estats Units d'Amèrica

latitud: 42-11-27N, longitud: 071-10-26W, altitud: 15 m

Observació

L'informe es va fer fa 48 minuts, a les 21:53 UTC
Vent 10 kt del Est
Temperatura 8°C
Humitat 61%
Pressió 1008 hPa
Visibilitat: 16.1 km
Cel ennuvolat a una alçada de 5500 ft
Cel cobert a una alçada de 7000 ft
pluja

METAR: KOWD 152153Z 09010KT 10SM -RA BKN055 OVC070 08/01 A2977 RMK AO2 SLP080 P0000 T00830006

Hora: 18:41 (22:41 UTC)


TAF: manca

Observacions i pronòstics meteorològics de més de 4000 aeroports (METAR i TAF).

Les estacions disponibles són els punts grocs i vermells al mapa.

Posi el ratolí al punt desitjat per veure el nom de l'estació.

Feu clic per veure les observacions i els pronòstics meteorològics.

Per canviar el mapa: feu clic els botons verds amb una creu de color negre per apropar; al botó verd amb un guió per allunyar la imatge; o en les fletxes verdes per a mapes adjacents.


METAR-TAF: